Flag for Germany Weather past 2 weeks in Datteln, North Rhine-Westphalia, Germany

Now
59 °F

Passing clouds.


Feels Like: 58 °F
Forecast: 54 / 64 °F
Wind: 5 mph from Southwest

Location: Duesseldorf

Current Time: Aug 30, 2014 at 2:43:55 AM

Latest Report: Aug 30, 2014 at 2:00 AM


Visibility: 31 mi

Pressure: 30.03 "Hg

Humidity: 84%

Dew point: 54 °F

Location of DattelnLocation

Historic Weather in Datteln — Graph

°F

Datteln temperature yesterday

Maximum temperature yesterday: 66 °F (at 12:00 PM)
Minimum temperature yesterday: 57 °F (at 6:00 AM)
Average temperature yesterday: 63 °F

Past Weeks' High & Low Weather Summary

 TemperatureHumidityPressure
High72 °F (Aug 28, 3:00 PM)96% (Aug 21, 3:00 AM)30.10 "Hg (Aug 21, 3:00 AM)
Low45 °F (Aug 21, 6:00 AM)42% (Aug 27, 6:00 PM)29.63 "Hg (Aug 26, 6:00 AM)
Average58 °F78%29.93 "Hg
* Reported Aug 15 1:00 AM — Aug 30 1:00 AM, Datteln, Weather by CustomWeather, © 2014

Note: Actual official high and low records may vary slightly from our data, if they occured in-between our weather recording intervals... More about our weather records

Advertising

Datteln weather history for previous 24 hours

 ConditionsComfort  
Time TempWeatherWind HumidityBarometerVisibility
1:00 AM
Aug 30
58 °FPassing clouds.5 mph83%30.02 "Hg31 mi
12:00 AM62 °FOvercast.3 mph77%30.02 "Hg31 mi
9:00 PM
Aug 29
60 °FOvercast.2 mph79%30.00 "Hg31 mi
8:00 PM63 °FPartly sunny.3 mph76%29.99 "Hg31 mi
7:00 PM65 °FOvercast.3 mph70%30.00 "Hg31 mi
6:00 PM66 °FOvercast.5 mph68%29.99 "Hg25 mi
5:00 PM65 °FOvercast.2 mph71%30.01 "Hg25 mi
4:00 PM64 °FOvercast.7 mph71%30.02 "Hg22 mi
3:00 PM63 °FSprinkles. Overcast.3 mph80%30.02 "Hg9 mi
2:00 PM62 °FOvercast.3 mph88%30.02 "Hg9 mi
1:00 PM62 °FSprinkles. Overcast.7 mph75%30.02 "Hg4 mi
12:00 PM66 °FOvercast.5 mph64%30.01 "Hg19 mi
10:00 AM63 °FOvercast.2 mph81%30.00 "Hg22 mi
9:00 AM61 °FOvercast.3 mph84%29.99 "Hg22 mi
8:00 AM61 °FOvercast.3 mph85%29.98 "Hg22 mi
7:00 AM58 °FPartly sunny.2 mph90%29.98 "Hg22 mi
6:00 AM57 °FPassing clouds.2 mph91%29.98 "Hg22 mi
5:00 AM61 °FPassing clouds.2 mph87%29.97 "Hg19 mi
4:00 AM62 °FOvercast.3 mph90%29.97 "Hg19 mi
3:00 AM62 °FOvercast.1 mph91%29.97 "Hg19 mi
2:00 AM63 °FOvercast.2 mph89%29.97 "Hg19 mi
Weather by CustomWeather, © 2014

See weather overviewHow to use our weather pages